SCP
0 0 0 0 0 -0 -0 -0 -0 0 0 0 0 0 0 0 0 0 0 0 0 0 0 0 0 0 0 0 0 0 0 0 0 0 0 0 0 0 0 0 0 0 0
0 0 0 0 0 0 -0 -0 -0 0 0 0 0 0 0 0 0 0 0 0 0 0 0 0 0 0 0 0 0 0 0 0 0 0 0 0 0 0 0 0 0 0 0
0 0 0 0 0 0 0 0 0 0 0 0 0 0 0 0 0 0 0 0 0 0 0 0 0 0 0 0 0 0 0 0 0 0 0 0 0 0 0 0 0 0 0
0 0 0 0 0 0 0 0 0 0 0 0 0 0 0 0 0 0 0 0 0 0 0 0 0 0 0 0 0 0 0 0 0 0 0 0 0 0 0 0 0 0 0
0 0 0 0 0 0 0 0 0 0 0 0 0 0 0 0 0 0 0 0 0 0 0 0 0 0 0 0 0 0 0 0 0 0 0 0 0 0 0 0 0 0 0
0 0 0 0 0 0 0 0 0 0 0 0 0 0 0 0 0 0 0 0 0 0 0 0 0 0 0 0 0 0 0 0 0 0 0 0 0 0 0 0 0 0 0
0 0 0 0 0 0 0 0 0 0 0 0 0 0 0 0 0 0 0 0 0 0 0 0 0 0 0 0 0 0 0 0 0 0 0 0 0 0 0 0 0 0 0
0 0 0 0 0 0 0 0 0 0 0 0 0 0 0 0 0 0 0 0 0 0 0 0 0 0 0 0 0 0 0 0 0 0 0 0 0 0 0 0 0 0 0
0 0 0 0 0 0 0 0 0 0 0 0 0 0 0 0 0 0 0 0 0 0 0 0 0 0 0 0 0 0 0 0 0 0 0 0 0 0 0 0 0 0 0
0 0 0 0 0 0 0 0 0 0 0 0 0 0 0 0 0 0 0 0 0 0 0 0 0 0 0 0 0 0 0 0 0 0 0 0 0 0 0 0 0 0 0
0 0 0 0 0 0 0 0 0 0 0 0 0 0 0 0 0 0 0 0 0 0 0 0 0 0 0 0 0 0 0 0 0 0 0 0 0 0 0 0 0 0 0
0 0 0 0 0 0 0 0 0 0 0 0 0 0 0 0 0 0 0 0 0 0 0 0 0 0 0 0 0 0 0 0 0 0 0 0 0 0 0 0 0 0 0
0 0 0 0 0 0 0 0 0 0 0 0 0 0 0 0 0 0 0 0 0 0 0 0 0 0 0 0 0 0 0 0 0 0 0 0 0 0 0 0 0 0 0
0 0 0 0 0 0 0 0 0 0 0 0 0 0 0 0 0 0 0 0 0 0 0 0 0 0 0 0 0 0 0 0 0 0 0 0 0 0 0 0 0 0 0
0 0 0 0 0 0 0 0 0 0 0 0 0 0 0 0 0 0 0 0 0 0 0 0 0 0 0 0 0 0 0 0 0 0 0 0 0 0 0 0 0 0 0
0 0 0 0 0 0 0 0 0 0 0 0 0 0 0 0 0 0 0 0 0 0 0 0 0 0 0 0 0 0 0 0 0 0 0 0 0 0 0 0 0 0 0
0 0 0 0 0 0 0 0 0 0 0 0 0 0 0 0 0 0 0 0 0 0 0 0 0 0 0 0 0 0 0 0 0 0 0 0 0 0 0 0 0 0 0
0 0 0 0 0 0 0 0 0 0 0 0 0 0 0 0 0 0 0 0 0 0 0 0 0 0 0 0 0 0 0 0 0 0 0 0 0 0 0 0 0 0 0
0 0 0 0 0 0 0 0 0 0 0 0 0 0 0 0 0 0 0 0 0 0 0 0 0 0 0 0 0 0 0 0 0 0 0 0 0 0 0 0 0 0 0
0 0 0 0 0 0 0 0 0 0 0 0 0 0 0 0 0 0 0 0 0 0 0 0 0 0 0 0 0 0 0 0 0 0 0 0 0 0 0 0 0 0 0
0 0 0 0 0 0 0 0 0 0 0 0 0 0 0 0 0 0 0 0 0 0 0 0 0 0 0 0 0 0 0 0 0 0 0 0 0 0 0 0 0 0 0
0 0 0 0 0 0 0 0 0 0 0 0 0 0 0 0 0 0 0 0 0 0 0 0 0 0 0 0 0 0 0 0 0 0 0 0 0 0 0 0 0 0 0
0 0 0 0 0 0 0 0 0 0 0 0 0 0 0 0 0 0 0 0 0 0 0 0 0 0 0 0 0 0 0 0 0 0 0 0 0 0 0 0 0 0 0
0 0 0 0 0 0 0 0 0 0 0 0 0 0 0 0 0 0 0 0 0 0 0 0 0 0 0 0 0 0 0 0 0 0 0 0 0 0 0 0 0 0 0
0 0 0 0 0 0 0 0 0 0 0 0 0 0 0 0 0 0 0 0 0 0 0 0 0 0 0 0 0 0 0 0 0 0 0 0 0 0 0 0 0 0 0
0 0 0 0 0 0 0 0 0 0 0 0 0 0 0 0 0 0 0 0 0 0 0 0 0 0 0 0 0 0 0 0 0 0 0 0 0 0 0 0 0 0 0
Wind_Speed
3 3 2 2 2 2 2 1 1 1 1 1 2 3 4 4 5 4 4 11 11 11 11 12 11 11 10 10 10 9 9 8 8 8 7 7 7 7 7 7 7 7 6
4 3 3 2 2 2 2 2 2 1 1 1 2 3 4 5 5 4 4 7 12 11 11 11 11 11 11 10 10 10 10 9 8 8 8 8 7 7 7 7 7 7 7
5 4 3 2 3 3 3 2 1 1 1 1 1 2 3 4 5 5 5 4 5 10 11 11 11 11 11 11 11 11 10 9 9 9 8 8 8 7 7 7 7 7 7
5 4 3 3 3 3 2 2 2 1 1 1 1 2 2 3 4 5 4 4 4 4 7 11 10 9 10 11 12 11 11 10 10 10 9 9 9 8 8 7 7 7 7
5 4 3 3 3 2 2 3 2 2 2 1 2 1 1 2 3 4 4 5 5 4 4 7 10 10 12 12 12 12 12 11 11 11 11 11 10 9 9 8 8 7 7
5 4 3 3 3 2 1 1 2 1 2 2 1 1 1 2 2 3 5 5 5 6 6 5 5 7 11 11 11 12 12 12 12 11 11 11 11 10 9 9 8 8 8
5 4 3 3 3 3 3 3 2 2 1 1 1 1 2 1 1 2 3 3 4 5 6 6 4 3 4 9 10 10 12 12 11 11 11 11 10 10 9 9 8 8 8
5 4 4 3 3 3 3 3 3 2 1 2 2 1 2 3 2 1 2 3 4 3 5 6 4 5 4 3 6 10 11 11 11 11 11 10 10 9 9 9 8 8 8
5 4 4 4 4 4 3 3 3 4 2 1 2 4 3 3 2 2 1 1 2 2 2 3 4 4 5 4 4 7 10 9 10 11 10 10 8 8 8 8 8 8 7
4 4 4 4 4 3 4 4 4 3 3 2 2 2 3 4 3 1 2 1 0 1 2 3 3 3 3 3 3 5 7 8 9 9 8 8 8 7 7 7 7 7 6
4 4 4 4 4 3 4 4 3 3 3 4 3 2 2 1 2 2 1 1 1 1 0 1 1 2 2 2 3 4 6 7 7 7 6 6 7 7 7 6 6 6 6
2 3 4 4 4 3 4 4 4 4 4 4 3 3 3 2 3 3 3 2 1 1 1 0 1 1 1 2 3 6 6 6 6 6 6 6 6 6 6 6 5 5 6
2 4 4 3 3 4 4 3 3 3 3 3 4 3 3 3 3 3 3 2 2 1 0 1 0 1 1 1 2 5 6 6 6 6 6 6 6 6 6 6 5 5 5
3 3 3 3 3 3 3 3 2 3 2 3 3 3 2 3 3 3 4 4 2 0 0 0 1 1 1 1 2 4 4 7 7 7 7 7 8 8 8 7 7 7 7
2 2 2 2 2 2 2 3 2 2 2 2 2 2 2 2 2 3 3 4 4 3 2 2 1 1 2 2 3 2 3 8 9 9 8 9 9 9 9 8 8 8 8
2 2 2 2 2 2 2 2 2 2 2 2 2 2 2 2 1 2 3 3 3 4 3 1 1 2 3 3 5 3 4 9 9 9 9 9 9 9 9 9 9 9 9
2 2 2 2 2 2 2 2 2 2 2 1 1 1 2 2 1 2 2 2 3 3 3 1 1 2 3 3 4 4 4 3 5 9 9 9 9 9 9 9 9 9 10
2 2 2 2 1 1 1 2 1 1 1 1 1 1 1 1 1 1 1 2 2 3 5 4 2 2 2 4 5 5 4 4 4 8 9 9 9 9 9 10 10 9 8
2 2 2 2 1 1 1 1 1 1 1 1 1 1 1 2 1 1 1 2 2 3 4 5 3 2 2 3 5 5 5 3 4 6 8 8 8 9 10 10 9 8 7
3 2 2 2 2 2 2 1 2 2 2 1 0 1 1 2 2 2 2 2 3 4 4 5 4 3 2 2 4 4 3 2 2 3 4 5 7 8 8 8 8 8 7
3 3 3 3 2 2 1 1 2 3 2 2 2 1 1 2 2 2 2 3 4 4 4 4 4 3 3 3 3 3 4 3 2 1 2 2 2 2 2 4 6 7 6
4 4 4 3 3 2 3 4 4 3 3 3 2 2 3 4 5 6 5 5 5 5 5 4 4 4 4 4 4 4 4 3 1 1 2 1 2 1 1 1 4 6 6
4 4 3 3 3 2 4 4 5 4 4 3 3 3 3 4 5 5 7 8 6 5 6 5 5 5 5 5 6 5 3 2 2 3 3 1 1 1 1 2 5 5 5
4 3 3 3 3 3 4 5 7 5 5 4 3 3 3 3 4 5 6 6 6 5 3 3 4 3 4 5 5 6 5 4 3 1 2 2 1 1 1 1 4 6 5
3 3 3 3 3 3 4 5 6 4 4 4 3 4 3 3 5 6 7 6 6 4 6 8 7 6 6 7 7 5 4 4 2 0 1 2 2 1 0 1 3 5 6
3 3 3 3 3 2 3 5 5 4 4 3 3 4 5 5 5 6 5 6 5 3 4 5 6 6 5 5 6 5 5 4 3 1 1 2 2 2 1 1 1 2 3
Wind_Direction
161 162 166 174 177 174 174 185 225 245 212 178 174 165 156 150 156 160 167 174 174 175 175 173 172 172 171 172 172 171 171 170 169 169 169 170 169 168 167 164 164 164 162
161 165 171 177 189 187 182 182 198 196 186 171 177 168 162 157 164 166 169 180 183 181 182 181 180 181 180 182 183 182 181 180 179 181 180 180 180 180 179 176 175 174 172
162 160 165 178 196 193 183 175 184 154 169 158 173 173 164 168 169 175 177 181 186 190 189 189 189 189 190 190 191 191 189 187 188 188 188 188 189 190 188 186 187 182 180
164 159 168 190 196 184 170 164 162 141 158 157 187 194 178 174 173 181 182 184 187 193 198 198 196 196 200 201 201 199 198 199 198 196 197 196 196 196 193 191 192 191 191
170 166 178 189 179 166 173 182 157 158 180 192 201 203 194 179 181 185 189 194 193 189 190 201 201 204 208 210 212 208 206 207 207 205 207 205 204 199 197 198 200 200 201
173 170 178 186 170 153 168 174 164 170 181 188 210 230 245 212 194 193 198 195 196 197 196 203 205 213 215 217 217 213 210 209 211 211 211 210 208 203 202 203 203 205 207
174 174 178 175 170 164 180 176 162 170 205 159 88 352 331 318 222 206 202 192 200 202 194 201 199 201 219 223 222 217 214 211 210 213 212 211 211 207 206 206 206 208 211
182 181 175 180 180 172 183 184 167 160 215 165 141 118 341 337 331 247 198 194 206 202 200 199 200 201 210 210 218 217 217 217 215 215 212 212 211 208 206 207 208 210 211
193 191 184 180 184 180 190 196 179 171 195 219 170 154 163 222 286 318 273 211 182 182 197 187 196 200 203 204 210 219 215 213 216 215 211 208 208 208 208 208 208 205 202
199 197 191 186 185 186 193 202 189 180 173 203 219 198 182 167 167 272 335 348 190 179 188 189 189 194 199 198 198 200 208 210 211 209 203 198 198 199 200 200 195 189 185
206 201 193 192 194 196 201 204 193 192 187 191 197 198 194 182 167 162 227 310 353 335 192 190 168 179 194 199 193 183 187 197 197 192 188 186 180 177 177 181 180 173 165
212 209 201 194 193 199 206 204 201 198 201 196 195 187 177 176 188 177 193 210 224 297 33 112 162 175 177 182 180 169 168 167 163 164 168 168 165 163 164 165 163 154 150
210 219 210 192 195 208 207 197 195 201 200 199 201 201 197 197 180 171 169 185 198 227 42 44 98 152 138 131 151 149 151 149 151 147 141 136 132 131 133 134 134 133 129
208 208 195 192 197 199 201 191 192 200 198 210 215 208 206 208 185 178 172 160 164 231 182 192 40 90 117 121 118 133 131 134 133 128 126 123 120 117 113 111 111 113 110
196 193 187 195 203 196 195 183 194 210 191 206 212 208 213 220 192 188 178 167 165 189 223 204 185 127 123 104 113 124 126 129 130 125 122 120 117 113 109 108 105 106 103
190 179 184 191 195 191 186 183 204 207 182 213 215 199 207 219 202 182 182 184 175 174 198 197 181 151 136 128 114 103 114 120 120 122 121 120 119 118 115 111 109 108 106
171 174 185 183 184 200 196 187 202 193 190 220 243 204 219 201 201 202 186 184 178 161 167 164 124 128 124 128 114 103 99 100 110 115 117 117 118 117 116 115 114 112 111
158 166 164 158 170 183 180 176 186 182 169 210 236 207 230 193 188 199 179 180 178 165 154 157 147 141 131 137 125 118 113 108 105 114 119 122 123 124 122 120 117 115 113
134 124 125 132 116 99 117 132 143 144 147 186 197 191 207 167 185 193 173 163 159 144 136 147 148 129 118 130 119 110 104 96 107 113 114 120 126 126 124 121 119 116 114
131 118 102 101 96 93 102 116 128 130 121 115 121 158 168 165 187 176 155 150 139 132 130 138 138 132 124 123 125 128 117 95 104 105 105 112 119 122 128 130 129 125 121
117 108 98 85 75 74 75 102 115 120 113 91 64 59 73 104 127 145 150 152 144 138 136 137 138 136 142 148 152 140 132 120 75 101 109 106 107 101 126 143 145 144 139
102 94 93 92 79 64 68 100 106 103 99 95 81 62 62 65 78 85 100 119 134 144 150 146 148 157 161 151 136 140 141 140 158 175 128 118 117 131 188 184 168 159 157
111 104 98 98 94 70 79 88 93 98 88 79 74 68 69 65 71 80 77 77 84 114 138 150 155 165 164 166 152 149 154 144 160 168 132 147 161 181 216 183 181 183 183
115 113 109 105 95 73 76 84 89 83 79 69 65 73 87 72 74 93 91 76 63 57 80 112 140 153 155 159 163 158 149 118 82 82 134 151 183 202 212 204 205 201 204
113 108 107 104 98 77 76 94 101 94 86 71 62 63 81 85 89 99 99 94 78 60 67 86 94 106 124 138 140 126 127 127 113 156 159 146 170 167 178 232 229 217 220
126 122 109 107 110 101 95 110 111 110 102 87 64 54 64 88 100 104 111 114 107 95 91 84 76 72 84 108 126 144 153 147 135 161 202 149 151 140 154 268 229 220 227